Amsterdam, Netherlands

5:40 AM CEST on June 28, 2017 (GMT +0200)
Schiphol

Weather History for EHAM - May, 2014

Change the Weather History Date:

Monday, May 26, 2014

  Actual Average Record
Temperature  
Mean Temperature 63 °F -  
Max Temperature 71 °F 65 °F 84 °F (2005)
Min Temperature 55 °F 50 °F 42 °F (1997)
Degree Days  
Heating Degree Days 2    
Growing Degree Days 13 (Base 50)    
Moisture  
Dew Point 55 °F    
Average Humidity 81    
Maximum Humidity 100    
Minimum Humidity 43    
Precipitation  
Precipitation 0.51 in - - ()
Sea Level Pressure  
Sea Level Pressure 30.03 in    
Wind  
Wind Speed 8 mph ()    
Max Wind Speed 18 mph    
Max Gust Speed -    
Visibility 6.9 miles    
Events Rain    
Averages and records for this station are not official NWS values.
T = Trace of Precipitation, MM = Missing Value Source: Averaged Metar Reports

Daily Weather History Graph

Daily Weather History Graph

Search for Another Location

Airport or City:

Trip Planner

Search our weather history database for the weather conditions in past years. The results will help you decide how hot, cold, wet, or windy it might be!

Date:

Astronomy

May. 26, 2014 Rise Set
Actual Time 5:31 AM CEST 9:45 PM CEST
Civil Twilight 4:45 AM CEST 10:31 PM CEST
Nautical Twilight 3:39 AM CEST 11:38 PM CEST
Astronomical Twilight 2:10 AM CEST 1:05 AM CEST
Moon 4:26 AM CEST (5/26) 7:13 PM CEST (5/26)
Length of Visible Light 17h 45m
Length of Day
16h 14m
Waning Crescent, 6% of the Moon is Illuminated
May 26
Waning Crescent
May 28
New
Jun 5
First Quarter
Jun 13
Full
Jun 19
Last Quarter

Hourly Weather History & Observations

Time (CEST) Temp. Dew Point Humidity Pressure Visibility Wind Dir Wind Speed Gust Speed Precip Events Conditions
12:00 AM 58 °F 54 °F 80% 30.15 in 11 mi NNE 6.7 mph - -   Mostly Cloudy
12:25 AM 57.2 °F 53.6 °F 88% 30.12 in - NNE 6.9 mph - N/A   Clear
12:55 AM 57.2 °F 53.6 °F 88% 30.12 in - NNE 6.9 mph - N/A   Clear
1:00 AM 58 °F 53 °F 80% 30.15 in 11 mi NNE 6.7 mph - -   Scattered Clouds
1:25 AM 57.2 °F 53.6 °F 88% 30.12 in - NNE 8.1 mph - N/A   Clear
1:55 AM 57.2 °F 53.6 °F 88% 30.12 in - NNE 6.9 mph - N/A   Clear
2:00 AM 57 °F 54 °F 86% 30.14 in 8 mi NNE 6.7 mph - -   Partly Cloudy
2:25 AM 57.2 °F 53.6 °F 88% 30.12 in - NNE 6.9 mph - N/A   Clear
2:55 AM 57.2 °F 53.6 °F 88% 30.12 in - NNE 5.8 mph - N/A   Clear
3:00 AM 57 °F 54 °F 86% 30.13 in 8 mi NNE 6.7 mph - -   Mostly Cloudy
3:25 AM 55.4 °F 53.6 °F 94% 30.12 in - NNE 5.8 mph - N/A   Clear
3:55 AM 57.2 °F 53.6 °F 88% 30.09 in - NNE 5.8 mph - N/A   Clear
4:00 AM 56 °F 54 °F 92% 30.12 in 5 mi NNE 4.5 mph - -   Mist
4:25 AM 57.2 °F 53.6 °F 88% 30.09 in - North 4.6 mph - N/A   Clear
4:55 AM 57.2 °F 55.4 °F 94% 30.09 in - NNE 5.8 mph - N/A   Clear
5:00 AM 57 °F 55 °F 89% 30.12 in 4 mi NNE 4.5 mph - -   Mist
5:25 AM 57.2 °F 55.4 °F 94% 30.09 in 5.0 mi NNE 5.8 mph - N/A   Unknown
5:55 AM 57.2 °F 55.4 °F 94% 30.09 in 4.3 mi NNE 6.9 mph - N/A   Unknown
6:00 AM 58 °F 56 °F 89% 30.11 in 4 mi NNE 6.7 mph - -   Mist
6:25 AM 57.2 °F 55.4 °F 94% 30.09 in 4.3 mi NNE 5.8 mph - N/A   Unknown
6:55 AM 59.0 °F 55.4 °F 88% 30.09 in 4.3 mi NNE 8.1 mph - N/A   Unknown
7:00 AM 59 °F 56 °F 87% 30.09 in 5 mi NNE 8.9 mph - -   Mist
7:25 AM 59.0 °F 57.2 °F 94% 30.06 in 5.0 mi NNE 6.9 mph - N/A   Unknown
7:55 AM 60.8 °F 57.2 °F 88% 30.06 in 5.6 mi NE 6.9 mph - N/A   Unknown
8:00 AM 60 °F 57 °F 85% 30.09 in 6 mi NE 6.7 mph - -   Mist
8:25 AM 60.8 °F 57.2 °F 88% 30.06 in - NE 9.2 mph - N/A   Clear
8:55 AM 62.6 °F 57.2 °F 82% 30.06 in - NE 8.1 mph - N/A   Clear
9:00 AM 63 °F 57 °F 74% 30.08 in 11 mi NE 8.9 mph - -   Overcast
9:25 AM 64.4 °F 55.4 °F 73% 30.06 in - ENE 8.1 mph - N/A   Clear
9:55 AM 64.4 °F 53.6 °F 68% 30.06 in - ENE 9.2 mph - N/A   Clear
10:00 AM 64 °F 54 °F 62% 30.08 in 22 mi ENE 8.9 mph - -   Partly Cloudy
10:25 AM 64.4 °F 55.4 °F 73% 30.06 in - NE 9.2 mph - N/A   Clear
10:55 AM 66.2 °F 53.6 °F 64% 30.06 in - ENE 9.2 mph - N/A   Clear
11:00 AM 67 °F 54 °F 52% 30.07 in 19 mi ENE 8.9 mph - -   Partly Cloudy
11:25 AM 68.0 °F 53.6 °F 60% 30.06 in - ENE 9.2 mph - N/A   Clear
11:55 AM 68.0 °F 53.6 °F 60% 30.04 in 6.2 mi NE 9.2 mph - N/A   Partly Cloudy
12:00 PM 69 °F 53 °F 46% 30.05 in 22 mi ENE 8.9 mph - -   Mostly Cloudy
12:25 PM 69.8 °F 53.6 °F 56% 30.04 in 6.2 mi NE 10.4 mph - N/A   Partly Cloudy
12:55 PM 69.8 °F 55.4 °F 60% 30.04 in 6.2 mi ENE 12.7 mph - N/A   Partly Cloudy
1:00 PM 71 °F 56 °F 48% 30.03 in 22 mi ENE 13.4 mph - -   Scattered Clouds
1:25 PM 71.6 °F 53.6 °F 53% 30.01 in 6.2 mi NE 12.7 mph - N/A   Partly Cloudy
1:55 PM 69.8 °F 53.6 °F 56% 30.01 in 6.2 mi NE 13.8 mph - N/A   Partly Cloudy
2:00 PM 70 °F 53 °F 43% 30.01 in 25 mi NE 17.9 mph - -   Partly Cloudy
2:25 PM 69.8 °F 53.6 °F 56% 29.98 in 6.2 mi NE 13.8 mph - N/A   Partly Cloudy
2:55 PM 69.8 °F 55.4 °F 60% 29.98 in 6.2 mi ENE 15.0 mph - N/A   Partly Cloudy
3:00 PM 69 °F 55 °F 52% 29.99 in 22 mi ENE 13.4 mph - -   Overcast
3:25 PM 68.0 °F 53.6 °F 60% 29.98 in 6.2 mi NE 13.8 mph - N/A   Partly Cloudy
3:55 PM 66.2 °F 55.4 °F 68% 29.98 in 6.2 mi East 12.7 mph - N/A Rain Light Rain
4:00 PM 66 °F 56 °F 61% 30.00 in 10 mi East 13.4 mph - - Rain Heavy Rain
4:25 PM 62.6 °F 57.2 °F 82% 29.98 in 5.0 mi ENE 9.2 mph - N/A Rain Light Rain Showers
4:55 PM 57.2 °F 55.4 °F 94% 30.01 in 4.3 mi SSE 10.4 mph - N/A Rain Light Rain Showers
5:00 PM 57 °F 56 °F 94% 30.02 in 6 mi SE 8.9 mph - - Rain Heavy Rain
5:25 PM 57.2 °F 55.4 °F 94% 30.01 in 5.0 mi East 6.9 mph - N/A Rain Light Rain Showers
5:55 PM 57.2 °F 55.4 °F 94% 29.98 in 6.2 mi NE 6.9 mph - N/A Rain Light Rain
6:00 PM 58 °F 56 °F 91% 29.99 in 7 mi NE 6.7 mph - - Rain Rain
6:25 PM 59.0 °F 55.4 °F 88% 29.98 in 6.2 mi NNE 5.8 mph - N/A Rain Light Rain
6:55 PM 59.0 °F 55.4 °F 88% 29.95 in 6.2 mi North 4.6 mph - N/A Rain Light Rain
7:00 PM 59 °F 57 °F 89% 29.96 in 7 mi North 4.5 mph - - Rain Rain
7:25 PM 59.0 °F 55.4 °F 88% 29.95 in 6.2 mi North 3.5 mph - N/A Rain Light Rain
7:55 PM 59.0 °F 57.2 °F 94% 29.95 in - North 8.1 mph - N/A   Clear
8:00 PM 59 °F 57 °F 90% 29.94 in 15 mi North 8.9 mph - - Rain Rain
8:25 PM 59.0 °F 57.2 °F 94% 29.92 in - NNE 8.1 mph - N/A   Clear
8:55 PM 59.0 °F 57.2 °F 94% 29.92 in 6.2 mi NNE 11.5 mph - N/A   Partly Cloudy
9:00 PM 59 °F 57 °F 92% 29.94 in 13 mi NNE 11.2 mph - -   Overcast
9:25 PM 59.0 °F 57.2 °F 94% 29.92 in 6.2 mi NNE 10.4 mph - N/A   Scattered Clouds
9:55 PM 59.0 °F 59.0 °F 100% 29.92 in 6.2 mi NNE 10.4 mph - N/A   Scattered Clouds
10:00 PM 59 °F 58 °F 96% 29.94 in 7 mi NE 11.2 mph - -   Overcast
10:25 PM 59.0 °F 55.4 °F 88% 29.92 in 6.2 mi NE 15.0 mph - N/A Rain Light Rain Showers
10:55 PM 59.0 °F 57.2 °F 94% 29.92 in 6.2 mi NNE 8.1 mph - N/A Rain Rain Showers
11:00 PM 59 °F 58 °F 94% 29.92 in 7 mi NNE 8.9 mph - - Rain Heavy Rain
11:25 PM 60.8 °F 59.0 °F 94% 29.89 in 6.2 mi NNE 10.4 mph - N/A   Mostly Cloudy
11:55 PM 60.8 °F 59.0 °F 94% 29.89 in 6.2 mi NE 10.4 mph - N/A   Mostly Cloudy